{"data":{"norad_id":58632,"intl_designator":"2023-203Q","name":"STARLINK-31081","alt_names":[],"object_type":"PAYLOAD","status":"ACTIVE","operator":null,"country":"US","launch_date":"2023-12-23","launch_site_code":"AFETR","launch_vehicle":null,"mission":null,"orbit_class":"UNKNOWN","rcs_meters":null,"size_class":null,"mass_kg":null,"dimensions":null,"purposes":["comms"],"wikipedia_slug":null,"has_3d_model":false,"image_url":null,"decayed_at":null,"tle_current":{"epoch":"2026-09-19T17:00:34.983936Z","epoch_age_seconds":218150,"freshness":"STALE","line1":"1 58632U 23203Q   26262.70873824  .00000005  00000+0  97222-5 0  9992","line2":"2 58632  43.0020  54.8474 0001364 268.3563  91.7132 15.27575746154422","mean_motion":15.27575746,"eccentricity":0.0001364,"inclination_deg":43.002,"raan_deg":54.8474,"arg_perigee_deg":268.3563,"mean_anomaly_deg":91.7132,"bstar":9.7222e-6,"rev_number":15442,"period_min":94.267011228129,"perigee_km":482.12596655461,"apogee_km":483.99770159655,"semimajor_km":6861.1988340756,"source":"CELESTRAK","updated_at":"2026-09-21T09:00:33.939667Z"}}}